Tracking 26321 objects as of 27-Nov-2022
HD Live streaming from Space Station
objects crossing your sky now

STARLINK-5117

Track STARLINK-5117 now!
10-day predictions
STARLINK-5117 is classified as:


NORAD ID: 54172
Int'l Code: 2022-141R
Perigee: 354.2 km
Apogee: 359.6 km
Inclination: 53.2 °
Period: 91.5 minutes
Semi major axis: 6727 km
RCS: Unknown
Launch date: October 28, 2022
Source: United States (US)
Launch site: AIR FORCE WESTERN TEST RANGE (AFWTR)
aabbcc
Your satellite tracking list
Your tracking list is empty




NASA's NSSDC Master Catalog

Two Line Element Set (TLE):
1 54172U 22141R   22331.25001157 -.00069237  00000-0 -49285-3 0  9991
2 54172  53.2169 354.4216 0004043 359.6704 182.1617 15.73191357  4784
Source of the keplerian elements: AFSPC